Snowfall_Accumulation
0.0 0.0 0.0 0.0 0.0 0.0 0.0 0.0 0.0 0.0 0.0 0.0 0.0 0.0 0.0 0.1 0.0 0.1 0.2 0.4 0.9 1.9
0.0 0.0 0.0 0.0 0.0 0.0 0.0 0.0 0.0 0.0 0.0 0.0 0.0 0.0 0.0 0.1 0.1 0.2 0.2 0.5 1.2 2.0
0.0 0.0 0.0 0.0 0.0 0.0 0.0 0.0 0.0 0.0 0.0 0.0 0.0 0.0 0.0 0.1 0.1 0.2 0.3 0.7 1.2 1.2
0.0 0.0 0.0 0.0 0.0 0.0 0.0 0.0 0.0 0.0 0.0 0.0 0.0 0.0 0.0 0.1 0.1 0.3 0.6 0.6 1.3 1.6
0.0 0.0 0.0 0.0 0.0 0.0 0.0 0.0 0.0 0.0 0.0 0.0 0.0 0.0 0.0 0.1 0.1 0.5 1.0 1.3 1.1 1.8
0.0 0.0 0.0 0.0 0.0 0.0 0.0 0.0 0.0 0.0 0.0 0.0 0.0 0.0 0.0 0.2 0.4 0.6 0.9 1.3 1.3 2.0
0.0 0.0 0.0 0.0 0.0 0.0 0.0 0.0 0.0 0.0 0.0 0.0 0.0 0.0 0.0 0.0 0.3 0.6 1.1 1.2 0.9 1.7
0.0 0.0 0.0 0.0 0.0 0.0 0.0 0.0 0.0 0.0 0.0 0.0 0.0 0.0 0.0 0.0 0.2 0.6 0.7 0.6 0.7 1.5
0.0 0.0 0.0 0.0 0.0 0.0 0.0 0.0 0.0 0.0 0.0 0.0 0.0 nan nan 0.0 0.1 0.2 0.4 0.9 0.6 0.8
0.0 0.0 0.0 0.0 0.0 0.0 0.0 0.0 0.0 0.0 0.0 0.0 0.0 nan nan nan 0.1 0.2 0.3 0.5 0.5 0.6
0.0 0.0 0.0 0.0 0.0 0.0 0.0 0.0 0.0 0.0 0.0 0.0 0.0 nan nan nan 0.0 0.0 0.1 0.2 0.6 0.6
0.0 0.0 0.0 0.0 0.0 0.0 0.0 0.0 0.0 0.0 0.0 0.0 0.0 nan nan 0.0 0.0 0.0 0.1 0.0 0.1 0.3
0.0 0.0 0.0 0.0 0.0 0.0 0.0 0.0 0.1 0.0 0.0 nan 0.0 nan nan nan 0.2 0.1 0.4 0.0 0.0 nan
0.0 0.0 0.0 0.0 0.0 0.0 0.0 0.0 0.0 0.0 0.0 0.0 0.0 0.0 nan nan 0.2 0.8 0.5 0.5 0.7 0.4
Water_Equivalent
0.00 0.00 0.00 0.00 0.00 0.00 0.00 0.00 0.00 0.00 0.00 0.00 0.00 0.00 0.00 0.01 0.01 0.01 0.03 0.06 0.13 0.29
0.00 0.00 0.00 0.00 0.00 0.00 0.00 0.00 0.00 0.00 0.00 0.00 0.00 0.00 0.00 0.02 0.02 0.03 0.03 0.07 0.18 0.29
0.00 0.00 0.00 0.00 0.00 0.00 0.00 0.00 0.00 0.00 0.00 0.00 0.00 0.00 0.00 0.02 0.02 0.03 0.05 0.11 0.17 0.18
0.00 0.00 0.00 0.00 0.00 0.00 0.00 0.00 0.00 0.00 0.00 0.00 0.00 0.00 0.00 0.01 0.01 0.04 0.08 0.09 0.19 0.25
0.00 0.00 0.00 0.00 0.00 0.00 0.00 0.00 0.00 0.00 0.00 0.00 0.00 0.00 0.00 0.01 0.02 0.07 0.13 0.17 0.15 0.27
0.00 0.00 0.00 0.00 0.00 0.00 0.00 0.00 0.00 0.00 0.00 0.00 0.00 0.00 0.00 0.03 0.05 0.08 0.13 0.18 0.18 0.31
0.00 0.00 0.00 0.00 0.00 0.00 0.00 0.00 0.00 0.00 0.00 0.00 0.00 0.00 0.00 0.01 0.04 0.08 0.15 0.17 0.13 0.27
0.00 0.00 0.00 0.00 0.00 0.00 0.00 0.00 0.00 0.00 0.00 0.00 0.00 0.00 0.00 0.00 0.02 0.08 0.10 0.09 0.09 0.24
0.00 0.00 0.00 0.00 0.00 0.00 0.00 0.00 0.00 0.00 0.01 0.01 0.00 nan nan 0.01 0.01 0.03 0.05 0.12 0.08 0.12
0.00 0.00 0.00 0.00 0.00 0.00 0.00 0.00 0.00 0.00 0.00 0.00 0.00 nan nan nan 0.03 0.04 0.05 0.07 0.07 0.08
0.00 0.00 0.00 0.00 0.00 0.00 0.00 0.00 0.00 0.00 0.00 0.00 0.00 nan nan nan 0.01 0.02 0.03 0.03 0.09 0.08
0.00 0.00 0.00 0.00 0.00 0.00 0.00 0.00 0.00 0.00 0.00 0.00 0.00 nan nan 0.00 0.00 0.01 0.03 0.01 0.03 0.06
0.00 0.00 0.00 0.00 0.00 0.00 0.00 0.00 0.05 0.00 0.00 nan 0.00 nan nan nan 0.06 0.02 0.15 0.02 0.01 nan
0.00 0.00 0.00 0.00 0.00 0.00 0.00 0.00 0.00 0.00 0.00 0.00 0.00 0.00 nan nan 0.06 0.21 0.19 0.19 0.27 0.15
SL_Ratio
nan nan nan nan nan nan nan nan nan nan nan nan nan nan 6.0 6.3 6.9 7.2 6.9 7.0 6.6 6.7
nan nan nan nan nan nan nan nan nan nan nan nan nan nan 6.7 6.6 6.7 7.1 7.1 7.0 6.8 6.8
nan nan nan nan nan nan nan nan nan nan nan nan nan nan 10.0 6.5 7.0 7.2 7.1 6.8 7.0 6.7
nan nan nan nan nan nan nan nan nan nan nan nan nan nan 10.0 7.1 7.2 7.3 7.2 7.0 7.0 6.6
nan nan nan nan nan nan nan nan nan nan nan nan nan nan 6.7 7.5 7.3 7.4 7.4 7.3 7.1 6.7
nan nan nan nan nan nan nan nan nan nan nan 0.0 nan nan nan 7.4 7.4 7.3 7.3 7.3 7.1 6.6
nan nan nan nan nan nan nan nan nan nan nan nan nan nan nan 7.8 7.4 7.3 7.2 7.1 7.0 6.4
nan nan nan nan nan nan nan nan nan 2.9 2.2 0.0 1.7 nan 2.9 6.7 7.5 7.4 7.3 7.2 7.0 6.4
nan nan nan nan nan nan nan nan nan nan 2.6 2.7 nan nan nan 2.8 5.6 7.4 7.4 7.4 7.2 6.8
nan nan nan nan nan nan nan nan nan nan nan 3.3 3.8 nan nan nan 2.5 4.5 6.3 6.6 6.9 7.0
nan nan nan nan nan nan nan nan nan nan nan nan 0.0 nan nan nan 2.2 2.7 3.9 5.5 6.5 6.6
nan nan nan nan nan nan nan nan nan nan nan nan 0.0 nan nan nan 0.0 2.6 2.6 3.1 4.7 5.9
nan nan nan nan nan nan nan nan 2.5 nan nan nan nan nan nan nan 2.7 3.4 2.6 2.6 2.6 nan
nan nan nan nan nan nan nan nan nan nan nan nan nan nan nan nan 3.4 3.6 2.8 2.8 2.7 2.6